Regional Weather Roundup
Issued by NWS Sioux Falls, SD

Home | Current Version | Previous Version | Text Only | Print | Product List | Glossary On
Versions: 1 2 3 4 5 6 7 8 9 10 11 12 13 14 15 16 17 18 19 20 21 22 23 24 25 26 27 28 29 30 31 32 33 34 35 36 37 38 39 40 41 42 43 44 45 46 47 48 49 50
000
ASUS43 KFSD 251910
RWRFSD

WEATHER ROUNDUP FOR SE SOUTH DAKOTA/SW MINNESOTA/NW IOWA
NATIONAL WEATHER SERVICE SIOUX FALLS SD
100 PM CST THU DEC 25 2014

NOTE: "FAIR" INDICATES FEW OR NO CLOUDS BELOW 12,000 FEET WITH NO
SIGNIFICANT WEATHER AND OR OBSTRUCTIONS TO VISIBILITY.


SDZ038>040-050-052>070-252000-
SOUTHEAST SOUTH DAKOTA

CITY           SKY/WX    TMP DP  RH WIND       PRES   REMARKS
CHAMBERLAIN    LGT SNOW  30  28  92 N16G23    29.68F WCI  19
HURON          LGT SNOW  30  28  92 N12       29.72S FOG     WCI  20
MADISON        FAIR      32  32 100 NE15      29.66S WCI  22
MITCHELL       CLOUDY    33  31  92 N14       29.68F WCI  23
SIOUX FALLS    PTSUNNY   35  28  75 NE14      29.65F WCI  26
WINNER         MIX PCPN  32  29  88 N18       29.67F VSB 1   WCI  20
YANKTON        MOSUNNY   36  28  75 NE9       29.62F
$$

MNZ071-072-080-081-089-090-097-098-252000-
SOUTHWEST MINNESOTA

CITY           SKY/WX    TMP DP  RH WIND       PRES   REMARKS
FAIRMONT       PTSUNNY   34  27  75 S9        29.70R WCI  26
JACKSON        MOSUNNY   36  30  80 S7        29.69R
LUVERNE        CLOUDY    37  30  75 E6        29.66F
MARSHALL       CLOUDY    32  27  80 N12       29.71R WCI  23
MONTEVIDEO     LGT SNOW  32  32 100 CALM      29.74R
PIPESTONE      CLOUDY    32  30  93 E8        29.66R WCI  25
REDWOOD FALLS  LGT SNOW  33  28  81 NE5       29.71S WCI  29
TRACY          CLOUDY    33  30  91 N8        29.70S WCI  25
WINDOM           N/A     36  28  75 CALM      29.68R
WORTHINGTON    MOSUNNY   37 -11  12 CALM      29.68R
$$

IAZ001>003-012>014-020>022-031-032-NEZ013-014-SDZ071-252000-
NORTHWEST IOWA

CITY           SKY/WX    TMP DP  RH WIND       PRES   REMARKS
CHEROKEE       MOSUNNY   36  31  82 E3        29.66F
DENISON        MOSUNNY   41  32  70 S14       29.62F
ESTHERVILLE    MOSUNNY   36  29  75 S7        29.68F
LE MARS        PTSUNNY   37  30  75 SE7       29.64F
ORANGE CITY    MOSUNNY   37  28  70 S5        29.64F
SHELDON        MOSUNNY   36  30  80 S6        29.64F
SIOUX CITY     PTSUNNY   41  32  70 SE10      29.62F
SPENCER        MOSUNNY   38  28  67 S6        29.67F
STORM LAKE     PTSUNNY   36  30  80 S8        29.66S
$$

ABBREVIATIONS USED IN REMARKS
   TC - TEMPERATURE IN CELSIUS
  WCI - WIND CHILL INDEX
   HX - HEAT INDEX
  VSB - VISIBILITY



USA.gov is the U.S. government's official web portal to all federal, state and local government web resources and services.